Location: Malanoce
(44.2500°N, 7.4667°E)
Time: 23:58:08
(UTC+00:00)

PSLV R/B - Pass Details

Date: 17 November 2025
Orbit: 561 x 589 km, 98.0° (Epoch: 09 December)

Event Time Altitude Azimuth Distance (km) Brightness Sun altitude
Rises 17:45:34 0° 159° (SSE) 2,760 6.8 -18.6°
Reaches altitude 10° 17:47:43 10° 156° (SSE) 1,863 5.9 -19.0°
Maximum altitude 17:51:43 67° 74° (ENE) 616 3.2 -19.7°
Drops below altitude 10° 17:55:43 10° 352° (N) 1,866 6.0 -20.4°
Sets 17:57:52 0° 350° (N) 2,765 6.9 -20.8°
